VINASAT-2

Last updated on Wed Oct 29 2025 00:02:47 GMT+0000 (Coordinated Universal Time)

1 38332U 12023B 25301.35557535 -.00000318 00000+0 00000+0 0 9997 2 38332 0.0386 62.3839 0002047 149.3840 85.0751 1.00272125 44331
UTC large
Height (km)
Speed (km/s)
/
Latitude / Longitude
Inclination (degrees)
Orbital Period (minutes)
Azimuth
Elevation
Range (km)
Doppler Factor

Next 0 passes for location: London (51.5072 / 0.1276)

Sorry there are no passes over London.